Find Starlink 11713

NORAD ID: 64070 Int'l Des: 2025-107 Owner: SPXS Country: US Constellation: starlink operational
LEOCIRCULAR

当前视图

正在加载3D地球...

About Starlink 11713

Starlink 11713 (NORAD 64070) is a starlink constellation satellite (v2 mini d2c) launched May 21, 2025 by SPXS of US. It operates in LEO, CIRCULAR orbit with a mass of 960.00 kg.

关于 Starlink 11713

正在加载描述...

即将过境

Passes for default location (London). Set your location on the main map for personalized predictions.

高度历史

Loading altitude history...

两行轨道根数

1 64070U 25107G 26193.04210603 .00211854 00000-0 16058-2 0 9992
2 64070 42.9971 68.8445 0001725 314.9030 45.1697 15.70943490 66850
Epoch: Jul 12, 2026 • Age: 15 hours

当前状态

高度 362.4 km
远地点 / 近地点 N/A
速度 7.69 km/s
星下点 -30.30°S, 145.06°W
发射日期 May 21, 2025
运行时间 1.1 years
类型 internet

技术详情

分类 Payload
质量 960.00 kg
干质量 910.00 kg
总质量 960.00 kg
长度 0.30 m
直径 4.10 m
跨度 29.00 m
形状 Box + pan
制造商 SPXS
平台类型 Starlink V2MD
阶段状态 In Orbit
所有者/国家 SPXS/US

Most Searched